Tabellarische Ansicht des 27.4.2009


Die einzelnen Werte des Tages

Uhrzeit Temperatur Luftdruck Luftfeuchte Wind Hi-Wind Taupunkt THW Index Wind Chill Heat Index Solar- strahlung Regen

00:00

13.1 C

1000.1 hpa

80 %

0.0 km/h aus 106

0.0 km/h aus ---

9.7 C

12.9 C

13.1 C

12.9 C

0 W/m

0.00 mm

00:05

12.9 C

1000.1 hpa

80 %

0.0 km/h aus 104

0.0 km/h aus ---

9.5 C

12.7 C

12.9 C

12.7 C

0 W/m

0.00 mm

00:10

12.7 C

1000.1 hpa

80 %

1.6 km/h aus 103

3.2 km/h aus SE

9.4 C

12.6 C

12.7 C

12.6 C

0 W/m

0.00 mm

00:15

12.5 C

999.9 hpa

81 %

1.6 km/h aus 107

3.2 km/h aus SE

9.3 C

12.3 C

12.5 C

12.3 C

0 W/m

0.00 mm

00:20

12.5 C

999.9 hpa

82 %

1.6 km/h aus 110

3.2 km/h aus SE

9.5 C

12.4 C

12.5 C

12.4 C

0 W/m

0.00 mm

00:25

12.5 C

999.9 hpa

81 %

1.6 km/h aus 105

3.2 km/h aus SE

9.3 C

12.3 C

12.5 C

12.3 C

0 W/m

0.00 mm

00:30

12.5 C

999.9 hpa

82 %

1.6 km/h aus 112

3.2 km/h aus SE

9.5 C

12.4 C

12.5 C

12.4 C

0 W/m

0.00 mm

00:35

12.7 C

999.9 hpa

81 %

0.0 km/h aus 113

1.6 km/h aus SE

9.5 C

12.5 C

12.7 C

12.5 C

0 W/m

0.00 mm

00:40

12.7 C

999.9 hpa

81 %

1.6 km/h aus 114

4.8 km/h aus SE

9.5 C

12.5 C

12.7 C

12.5 C

0 W/m

0.00 mm

00:45

12.8 C

999.8 hpa

81 %

1.6 km/h aus 112

3.2 km/h aus SE

9.7 C

12.7 C

12.8 C

12.7 C

0 W/m

0.00 mm

00:50

12.8 C

999.8 hpa

80 %

1.6 km/h aus 112

3.2 km/h aus SE

9.5 C

12.7 C

12.8 C

12.7 C

0 W/m

0.00 mm

00:55

12.7 C

999.8 hpa

81 %

3.2 km/h aus 109

4.8 km/h aus SE

9.5 C

12.5 C

12.7 C

12.5 C

0 W/m

0.00 mm

01:00

12.6 C

999.8 hpa

82 %

3.2 km/h aus 104

4.8 km/h aus SE

9.6 C

12.4 C

12.6 C

12.4 C

0 W/m

0.00 mm

01:05

12.6 C

999.8 hpa

82 %

3.2 km/h aus 103

3.2 km/h aus SE

9.6 C

12.4 C

12.6 C

12.4 C

0 W/m

0.00 mm

01:10

12.6 C

999.8 hpa

82 %

3.2 km/h aus 110

4.8 km/h aus SE

9.6 C

12.4 C

12.6 C

12.4 C

0 W/m

0.00 mm

01:15

12.6 C

999.9 hpa

82 %

1.6 km/h aus 113

4.8 km/h aus SE

9.6 C

12.4 C

12.6 C

12.4 C

0 W/m

0.00 mm

01:20

12.6 C

999.9 hpa

82 %

3.2 km/h aus 108

6.4 km/h aus S

9.6 C

12.5 C

12.6 C

12.5 C

0 W/m

0.00 mm

01:25

12.7 C

999.9 hpa

81 %

3.2 km/h aus 106

6.4 km/h aus S

9.5 C

12.6 C

12.7 C

12.6 C

0 W/m

0.00 mm

01:30

12.8 C

999.9 hpa

80 %

3.2 km/h aus 108

8.0 km/h aus SSW

9.4 C

12.6 C

12.8 C

12.6 C

0 W/m

0.00 mm

01:35

12.9 C

999.9 hpa

80 %

4.8 km/h aus 109

8.0 km/h aus SSW

9.5 C

12.7 C

12.9 C

12.7 C

0 W/m

0.00 mm

01:40

12.9 C

999.9 hpa

79 %

1.6 km/h aus 108

6.4 km/h aus SSW

9.4 C

12.8 C

12.9 C

12.8 C

0 W/m

0.00 mm

01:45

12.9 C

999.8 hpa

78 %

1.6 km/h aus 109

3.2 km/h aus SSW

9.2 C

12.7 C

12.9 C

12.7 C

0 W/m

0.00 mm

01:50

12.8 C

999.8 hpa

79 %

0.0 km/h aus 107

1.6 km/h aus SSW

9.3 C

12.7 C

12.8 C

12.7 C

0 W/m

0.00 mm

01:55

12.7 C

999.8 hpa

79 %

1.6 km/h aus 110

3.2 km/h aus SSW

9.2 C

12.6 C

12.7 C

12.6 C

0 W/m

0.00 mm

02:00

12.6 C

999.8 hpa

80 %

1.6 km/h aus 111

3.2 km/h aus SSW

9.2 C

12.4 C

12.6 C

12.4 C

0 W/m

0.00 mm

02:05

12.6 C

999.8 hpa

80 %

0.0 km/h aus 103

3.2 km/h aus SSW

9.2 C

12.4 C

12.6 C

12.4 C

0 W/m

0.00 mm

02:10

12.6 C

999.8 hpa

81 %

0.0 km/h aus 108

1.6 km/h aus SSW

9.4 C

12.4 C

12.6 C

12.4 C

0 W/m

0.00 mm

02:15

12.6 C

999.7 hpa

80 %

0.0 km/h aus 107

1.6 km/h aus SSW

9.2 C

12.4 C

12.6 C

12.4 C

0 W/m

0.00 mm

02:20

12.7 C

999.7 hpa

80 %

1.6 km/h aus 110

4.8 km/h aus SSW

9.3 C

12.5 C

12.7 C

12.5 C

0 W/m

0.00 mm

02:25

12.7 C

999.7 hpa

80 %

4.8 km/h aus 112

6.4 km/h aus SSW

9.4 C

12.6 C

12.7 C

12.6 C

0 W/m

0.00 mm

02:30

12.6 C

999.7 hpa

81 %

4.8 km/h aus 112

6.4 km/h aus SSW

9.4 C

12.4 C

12.6 C

12.4 C

0 W/m

0.00 mm

02:35

12.5 C

999.7 hpa

81 %

3.2 km/h aus 110

4.8 km/h aus SSW

9.3 C

12.3 C

12.5 C

12.3 C

0 W/m

0.00 mm

02:40

12.6 C

999.7 hpa

81 %

3.2 km/h aus 112

6.4 km/h aus SSW

9.4 C

12.4 C

12.6 C

12.4 C

0 W/m

0.00 mm

02:45

12.9 C

999.8 hpa

81 %

4.8 km/h aus 114

8.0 km/h aus SSW

9.7 C

12.7 C

12.9 C

12.7 C

0 W/m

0.00 mm

02:50

13.4 C

999.8 hpa

79 %

12.9 km/h aus 108

20.9 km/h aus SW

9.8 C

11.9 C

12.1 C

13.2 C

0 W/m

0.00 mm

02:55

14.1 C

999.8 hpa

77 %

12.9 km/h aus 108

22.5 km/h aus SSW

10.1 C

12.8 C

13.0 C

13.9 C

0 W/m

0.00 mm

03:00

14.6 C

1000.4 hpa

75 %

16.1 km/h aus 107

29.0 km/h aus SW

10.2 C

12.5 C

12.8 C

14.3 C

0 W/m

0.00 mm

03:05

15.0 C

1000.4 hpa

74 %

16.1 km/h aus 104

25.7 km/h aus SW

10.4 C

12.9 C

13.2 C

14.7 C

0 W/m

0.00 mm

03:10

15.0 C

1000.4 hpa

73 %

14.5 km/h aus 110

25.7 km/h aus WSW

10.2 C

13.3 C

13.6 C

14.7 C

0 W/m

0.00 mm

03:15

15.1 C

1000.1 hpa

73 %

9.7 km/h aus 104

16.1 km/h aus W

10.3 C

14.4 C

14.7 C

14.7 C

0 W/m

0.00 mm

03:20

15.1 C

1000.1 hpa

73 %

6.4 km/h aus 109

17.7 km/h aus WSW

10.3 C

14.8 C

15.1 C

14.8 C

0 W/m

0.00 mm

03:25

15.1 C

1000.1 hpa

73 %

4.8 km/h aus 108

9.7 km/h aus WSW

10.3 C

14.7 C

15.1 C

14.7 C

0 W/m

0.00 mm

03:30

15.0 C

1000.1 hpa

73 %

6.4 km/h aus 112

11.3 km/h aus WSW

10.2 C

14.7 C

15.0 C

14.7 C

0 W/m

0.00 mm

03:35

15.0 C

1000.1 hpa

73 %

8.0 km/h aus 107

17.7 km/h aus SW

10.2 C

14.6 C

14.9 C

14.7 C

0 W/m

0.00 mm

03:40

15.0 C

1000.1 hpa

74 %

9.7 km/h aus 107

17.7 km/h aus SW

10.4 C

14.4 C

14.7 C

14.7 C

0 W/m

0.00 mm

03:45

15.0 C

1000.2 hpa

74 %

11.3 km/h aus 108

17.7 km/h aus SW

10.4 C

14.2 C

14.4 C

14.7 C

0 W/m

0.00 mm

03:50

15.0 C

1000.2 hpa

74 %

12.9 km/h aus 108

25.7 km/h aus SW

10.4 C

13.8 C

14.1 C

14.7 C

0 W/m

0.00 mm

03:55

14.9 C

1000.2 hpa

75 %

9.7 km/h aus 110

24.1 km/h aus W

10.5 C

14.3 C

14.6 C

14.6 C

0 W/m

0.00 mm

04:00

14.7 C

1000.2 hpa

76 %

8.0 km/h aus 106

16.1 km/h aus W

10.5 C

14.3 C

14.5 C

14.4 C

0 W/m

0.00 mm

04:05

14.5 C

1000.2 hpa

77 %

6.4 km/h aus 109

14.5 km/h aus WSW

10.5 C

14.3 C

14.5 C

14.3 C

0 W/m

0.00 mm

04:10

14.3 C

1000.2 hpa

78 %

6.4 km/h aus 105

14.5 km/h aus NNW

10.5 C

14.1 C

14.3 C

14.1 C

0 W/m

0.00 mm

04:15

14.1 C

1000.2 hpa

79 %

6.4 km/h aus 107

17.7 km/h aus WNW

10.5 C

13.9 C

14.1 C

13.9 C

0 W/m

0.00 mm

04:20

13.9 C

1000.2 hpa

80 %

6.4 km/h aus 109

11.3 km/h aus W

10.5 C

13.8 C

13.9 C

13.8 C

0 W/m

0.00 mm

04:25

13.8 C

1000.2 hpa

81 %

8.0 km/h aus 111

12.9 km/h aus WNW

10.6 C

13.3 C

13.4 C

13.6 C

0 W/m

0.00 mm

04:30

13.6 C

999.8 hpa

83 %

6.4 km/h aus 107

16.1 km/h aus NW

10.8 C

13.4 C

13.6 C

13.5 C

0 W/m

0.00 mm

04:35

13.4 C

999.8 hpa

83 %

3.2 km/h aus 105

6.4 km/h aus WNW

10.6 C

13.3 C

13.4 C

13.3 C

0 W/m

0.00 mm

04:40

13.2 C

999.8 hpa

84 %

1.6 km/h aus 106

6.4 km/h aus WNW

10.6 C

13.2 C

13.2 C

13.2 C

0 W/m

0.00 mm

04:45

13.1 C

999.8 hpa

85 %

1.6 km/h aus 110

4.8 km/h aus WNW

10.6 C

13.0 C

13.1 C

13.0 C

0 W/m

0.00 mm

04:50

12.9 C

999.8 hpa

85 %

0.0 km/h aus 106

3.2 km/h aus WNW

10.4 C

12.8 C

12.9 C

12.8 C

0 W/m

0.00 mm

04:55

12.7 C

999.8 hpa

85 %

0.0 km/h aus 103

1.6 km/h aus WNW

10.2 C

12.6 C

12.7 C

12.6 C

0 W/m

0.00 mm

05:00

12.3 C

999.7 hpa

86 %

0.0 km/h aus 110

0.0 km/h aus ---

10.1 C

12.3 C

12.3 C

12.3 C

0 W/m

0.00 mm

05:05

11.9 C

999.7 hpa

86 %

1.6 km/h aus 104

4.8 km/h aus WNW

9.6 C

11.8 C

11.9 C

11.8 C

0 W/m

0.00 mm

05:10

11.4 C

999.7 hpa

87 %

3.2 km/h aus 108

4.8 km/h aus WNW

9.4 C

11.4 C

11.4 C

11.4 C

0 W/m

0.00 mm

05:15

11.1 C

999.9 hpa

87 %

3.2 km/h aus 103

6.4 km/h aus WNW

9.0 C

11.1 C

11.1 C

11.1 C

0 W/m

0.00 mm

05:20

10.7 C

999.9 hpa

88 %

3.2 km/h aus 103

6.4 km/h aus WNW

8.8 C

10.8 C

10.7 C

10.8 C

0 W/m

0.00 mm

05:25

10.6 C

999.9 hpa

89 %

4.8 km/h aus 110

6.4 km/h aus WNW

8.8 C

10.6 C

10.4 C

10.7 C

0 W/m

0.00 mm

05:30

10.4 C

1000.2 hpa

90 %

3.2 km/h aus 111

6.4 km/h aus WNW

8.9 C

10.6 C

10.4 C

10.6 C

0 W/m

0.00 mm

05:35

10.3 C

1000.2 hpa

90 %

4.8 km/h aus 111

9.7 km/h aus WNW

8.8 C

10.3 C

10.2 C

10.4 C

0 W/m

0.00 mm

05:40

10.7 C

1000.2 hpa

92 %

9.7 km/h aus 110

14.5 km/h aus WSW

9.5 C

9.7 C

9.6 C

10.9 C

0 W/m

0.00 mm

05:45

11.2 C

1000.7 hpa

92 %

6.4 km/h aus 107

11.3 km/h aus WSW

10.0 C

10.9 C

10.8 C

11.3 C

0 W/m

0.00 mm

05:50

11.2 C

1000.7 hpa

91 %

6.4 km/h aus 110

14.5 km/h aus SSW

9.8 C

10.9 C

10.8 C

11.3 C

0 W/m

0.00 mm

05:55

11.2 C

1000.7 hpa

91 %

9.7 km/h aus 107

16.1 km/h aus SSW

9.8 C

10.2 C

10.1 C

11.3 C

0 W/m

0.00 mm

06:00

11.4 C

1000.7 hpa

91 %

8.0 km/h aus 108

16.1 km/h aus SSW

10.0 C

10.8 C

10.7 C

11.5 C

0 W/m

0.00 mm

06:05

11.4 C

1000.7 hpa

91 %

6.4 km/h aus 106

14.5 km/h aus SW

10.0 C

11.2 C

11.1 C

11.6 C

0 W/m

0.00 mm

06:10

11.4 C

1000.7 hpa

91 %

4.8 km/h aus 99

9.7 km/h aus SW

10.0 C

11.5 C

11.4 C

11.5 C

0 W/m

0.00 mm

06:15

11.4 C

1000.7 hpa

90 %

6.4 km/h aus 110

11.3 km/h aus SW

9.8 C

11.1 C

11.0 C

11.4 C

0 W/m

0.00 mm

06:20

11.2 C

1000.7 hpa

90 %

6.4 km/h aus 95

8.0 km/h aus SW

9.6 C

10.8 C

10.7 C

11.3 C

0 W/m

0.00 mm

06:25

10.9 C

1000.7 hpa

90 %

6.4 km/h aus 105

11.3 km/h aus SW

9.3 C

10.5 C

10.4 C

11.0 C

0 W/m

0.00 mm

06:30

10.8 C

1000.7 hpa

90 %

9.7 km/h aus 111

16.1 km/h aus SSW

9.3 C

9.8 C

9.7 C

10.9 C

0 W/m

0.00 mm

06:35

10.9 C

1000.7 hpa

91 %

9.7 km/h aus 105

16.1 km/h aus SSW

9.5 C

9.9 C

9.8 C

11.1 C

0 W/m

0.00 mm

06:40

11.1 C

1000.7 hpa

91 %

9.7 km/h aus 112

16.1 km/h aus SSW

9.6 C

10.1 C

9.9 C

11.2 C

0 W/m

0.00 mm

06:45

11.1 C

1000.8 hpa

91 %

8.0 km/h aus 107

11.3 km/h aus SSW

9.6 C

10.4 C

10.3 C

11.2 C

0 W/m

0.00 mm

06:50

11.2 C

1000.8 hpa

91 %

8.0 km/h aus 112

14.5 km/h aus SSW

9.8 C

10.6 C

10.4 C

11.3 C

0 W/m

0.00 mm

06:55

11.5 C

1000.8 hpa

91 %

11.3 km/h aus 108

19.3 km/h aus SSW

10.1 C

10.3 C

10.2 C

11.6 C

0 W/m

0.00 mm

07:00

11.9 C

1000.8 hpa

91 %

17.7 km/h aus 114

29.0 km/h aus S

10.5 C

9.3 C

9.3 C

11.9 C

0 W/m

0.00 mm

07:05

12.2 C

1000.8 hpa

91 %

14.5 km/h aus 111

22.5 km/h aus SSW

10.8 C

10.4 C

10.3 C

12.3 C

0 W/m

0.00 mm

07:10

12.4 C

1000.8 hpa

89 %

11.3 km/h aus 109

16.1 km/h aus S

10.7 C

11.4 C

11.4 C

12.5 C

0 W/m

0.00 mm

07:15

12.6 C

1000.8 hpa

89 %

8.0 km/h aus 110

14.5 km/h aus SSW

10.8 C

12.1 C

12.0 C

12.6 C

0 W/m

0.00 mm

07:20

12.8 C

1000.8 hpa

88 %

6.4 km/h aus 115

17.7 km/h aus SSE

10.8 C

12.6 C

12.6 C

12.8 C

0 W/m

0.00 mm

07:25

13.1 C

1000.8 hpa

87 %

6.4 km/h aus 107

12.9 km/h aus SE

10.9 C

12.9 C

12.9 C

13.1 C

0 W/m

0.00 mm

07:30

13.3 C

1000.5 hpa

86 %

8.0 km/h aus 103

16.1 km/h aus SE

11.0 C

12.8 C

12.9 C

13.2 C

0 W/m

0.00 mm

07:35

13.4 C

1000.5 hpa

85 %

8.0 km/h aus 106

16.1 km/h aus SE

11.0 C

13.0 C

13.1 C

13.4 C

0 W/m

0.00 mm

07:40

13.4 C

1000.5 hpa

84 %

6.4 km/h aus 105

14.5 km/h aus SE

10.8 C

13.3 C

13.3 C

13.4 C

0 W/m

0.00 mm

07:45

13.6 C

1000.2 hpa

84 %

4.8 km/h aus 109

9.7 km/h aus SE

10.9 C

13.5 C

13.6 C

13.5 C

0 W/m

0.00 mm

07:50

13.7 C

1000.2 hpa

83 %

6.4 km/h aus 107

16.1 km/h aus ESE

10.8 C

13.5 C

13.6 C

13.6 C

0 W/m

0.00 mm

07:55

13.7 C

1000.2 hpa

83 %

6.4 km/h aus 108

11.3 km/h aus E

10.9 C

13.6 C

13.7 C

13.6 C

0 W/m

0.00 mm

08:00

13.7 C

1000.3 hpa

83 %

4.8 km/h aus 110

14.5 km/h aus ESE

10.9 C

13.6 C

13.7 C

13.6 C

0 W/m

0.00 mm

08:05

13.8 C

1000.3 hpa

84 %

4.8 km/h aus 109

9.7 km/h aus SE

11.1 C

13.7 C

13.8 C

13.7 C

0 W/m

0.00 mm

08:10

13.8 C

1000.3 hpa

84 %

3.2 km/h aus 109

6.4 km/h aus SE

11.1 C

13.7 C

13.8 C

13.7 C

0 W/m

0.00 mm

08:15

13.7 C

1000.2 hpa

85 %

4.8 km/h aus 111

11.3 km/h aus SSE

11.2 C

13.7 C

13.7 C

13.7 C

0 W/m

0.00 mm

08:20

13.9 C

1000.2 hpa

85 %

6.4 km/h aus 107

12.9 km/h aus SSE

11.4 C

13.8 C

13.9 C

13.8 C

0 W/m

0.00 mm

08:25

14.2 C

1000.2 hpa

83 %

8.0 km/h aus 108

14.5 km/h aus SE

11.3 C

13.8 C

13.9 C

14.1 C

0 W/m

0.00 mm

08:30

14.4 C

1000.2 hpa

82 %

8.0 km/h aus 107

14.5 km/h aus SSE

11.4 C

14.1 C

14.2 C

14.3 C

0 W/m

0.00 mm

08:35

14.5 C

1000.2 hpa

81 %

11.3 km/h aus 111

20.9 km/h aus S

11.3 C

13.7 C

13.8 C

14.4 C

0 W/m

0.00 mm

08:40

14.8 C

1000.2 hpa

79 %

14.5 km/h aus 113

22.5 km/h aus S

11.2 C

13.2 C

13.4 C

14.7 C

0 W/m

0.00 mm

08:45

15.0 C

1000.2 hpa

79 %

17.7 km/h aus 113

29.0 km/h aus S

11.4 C

12.7 C

12.9 C

14.8 C

0 W/m

0.00 mm

08:50

15.2 C

1000.2 hpa

77 %

16.1 km/h aus 109

27.4 km/h aus S

11.2 C

13.3 C

13.5 C

15.1 C

0 W/m

0.00 mm

08:55

15.6 C

1000.2 hpa

76 %

17.7 km/h aus 113

25.7 km/h aus SSE

11.3 C

13.3 C

13.5 C

15.4 C

0 W/m

0.00 mm

09:00

15.8 C

1000.6 hpa

75 %

17.7 km/h aus 112

27.4 km/h aus S

11.4 C

13.6 C

13.8 C

15.6 C

0 W/m

0.00 mm

09:05

15.9 C

1000.6 hpa

74 %

17.7 km/h aus 109

30.6 km/h aus S

11.3 C

13.7 C

13.9 C

15.7 C

0 W/m

0.00 mm

09:10

15.8 C

1000.6 hpa

75 %

17.7 km/h aus 106

30.6 km/h aus SSW

11.4 C

13.6 C

13.8 C

15.6 C

0 W/m

0.00 mm

09:15

15.8 C

1000.7 hpa

73 %

20.9 km/h aus 110

33.8 km/h aus S

10.9 C

12.9 C

13.2 C

15.5 C

0 W/m

0.00 mm

09:20

15.8 C

1000.7 hpa

73 %

17.7 km/h aus 111

32.2 km/h aus S

11.0 C

13.6 C

13.8 C

15.6 C

0 W/m

0.00 mm

09:25

15.9 C

1000.7 hpa

74 %

20.9 km/h aus 112

37.0 km/h aus S

11.3 C

13.2 C

13.4 C

15.7 C

0 W/m

0.00 mm

09:30

15.9 C

1000.7 hpa

71 %

22.5 km/h aus 113

35.4 km/h aus SSW

10.7 C

12.9 C

13.2 C

15.7 C

0 W/m

0.00 mm

09:35

15.7 C

1000.7 hpa

73 %

22.5 km/h aus 109

37.0 km/h aus S

10.8 C

12.6 C

12.8 C

15.4 C

0 W/m

0.00 mm

09:40

15.5 C

1000.7 hpa

71 %

24.1 km/h aus 105

33.8 km/h aus SSW

10.3 C

12.1 C

12.4 C

15.2 C

0 W/m

0.00 mm

09:45

15.3 C

1000.8 hpa

72 %

22.5 km/h aus 107

32.2 km/h aus S

10.3 C

12.1 C

12.4 C

14.9 C

0 W/m

0.00 mm

09:50

15.0 C

1000.8 hpa

71 %

22.5 km/h aus 108

37.0 km/h aus SSW

9.8 C

11.7 C

12.1 C

14.6 C

0 W/m

0.00 mm

09:55

15.2 C

1000.8 hpa

70 %

20.9 km/h aus 110

40.2 km/h aus S

9.7 C

12.1 C

12.5 C

14.8 C

0 W/m

0.00 mm

10:00

15.2 C

1001.0 hpa

68 %

25.7 km/h aus 111

40.2 km/h aus SSW

9.4 C

11.5 C

11.9 C

14.8 C

0 W/m

0.00 mm

10:05

15.2 C

1001.0 hpa

67 %

24.1 km/h aus 107

41.8 km/h aus SW

9.1 C

11.6 C

12.1 C

14.7 C

0 W/m

0.00 mm

10:10

15.0 C

1001.0 hpa

68 %

25.7 km/h aus 112

40.2 km/h aus SW

9.1 C

11.3 C

11.7 C

14.6 C

0 W/m

0.00 mm

10:15

15.2 C

1001.3 hpa

68 %

20.9 km/h aus 111

38.6 km/h aus SSW

9.3 C

12.1 C

12.5 C

14.7 C

0 W/m

0.00 mm

10:20

15.5 C

1001.3 hpa

66 %

20.9 km/h aus 111

38.6 km/h aus SW

9.2 C

12.4 C

12.9 C

15.1 C

0 W/m

0.00 mm

10:25

15.7 C

1001.3 hpa

66 %

16.1 km/h aus 108

29.0 km/h aus WSW

9.3 C

13.6 C

14.0 C

15.2 C

0 W/m

0.00 mm

10:30

15.7 C

1001.3 hpa

64 %

19.3 km/h aus 113

35.4 km/h aus SSW

8.9 C

12.8 C

13.4 C

15.2 C

0 W/m

0.00 mm

10:35

15.7 C

1001.3 hpa

65 %

16.1 km/h aus 110

29.0 km/h aus SSW

9.1 C

13.5 C

14.0 C

15.2 C

0 W/m

0.00 mm

10:40

15.7 C

1001.3 hpa

65 %

17.7 km/h aus 112

33.8 km/h aus SW

9.1 C

13.1 C

13.6 C

15.2 C

0 W/m

0.00 mm

10:45

15.6 C

1001.3 hpa

64 %

20.9 km/h aus 111

30.6 km/h aus SW

8.8 C

12.4 C

12.9 C

15.0 C

0 W/m

0.00 mm

10:50

15.6 C

1001.3 hpa

65 %

17.7 km/h aus 108

29.0 km/h aus SW

9.0 C

13.0 C

13.5 C

15.1 C

0 W/m

0.00 mm

10:55

15.3 C

1001.3 hpa

64 %

22.5 km/h aus 102

35.4 km/h aus SW

8.6 C

11.9 C

12.5 C

14.8 C

0 W/m

0.00 mm

11:00

15.1 C

1001.7 hpa

65 %

14.5 km/h aus 104

24.1 km/h aus SW

8.5 C

13.1 C

13.7 C

14.5 C

0 W/m

0.00 mm

11:05

15.0 C

1001.7 hpa

66 %

17.7 km/h aus 107

25.7 km/h aus SW

8.7 C

12.4 C

12.9 C

14.5 C

0 W/m

0.00 mm

11:10

15.0 C

1001.7 hpa

65 %

19.3 km/h aus 112

30.6 km/h aus SW

8.5 C

12.0 C

12.6 C

14.4 C

0 W/m

0.00 mm

11:15

15.0 C

1001.9 hpa

66 %

19.3 km/h aus 111

33.8 km/h aus SSW

8.7 C

12.1 C

12.6 C

14.5 C

0 W/m

0.00 mm

11:20

15.3 C

1001.9 hpa

64 %

14.5 km/h aus 112

25.7 km/h aus SW

8.5 C

13.4 C

13.9 C

14.7 C

0 W/m

0.00 mm

11:25

15.6 C

1001.9 hpa

64 %

17.7 km/h aus 109

29.0 km/h aus SSW

8.8 C

13.0 C

13.6 C

15.1 C

0 W/m

0.00 mm

11:30

15.6 C

1002.0 hpa

64 %

16.1 km/h aus 108

27.4 km/h aus SW

8.8 C

13.3 C

13.9 C

15.0 C

0 W/m

0.00 mm

11:35

15.3 C

1002.0 hpa

64 %

19.3 km/h aus 103

29.0 km/h aus WSW

8.6 C

12.4 C

12.9 C

14.8 C

0 W/m

0.00 mm

11:40

15.2 C

1002.0 hpa

65 %

19.3 km/h aus 110

32.2 km/h aus S

8.6 C

12.2 C

12.8 C

14.6 C

0 W/m

0.00 mm

11:45

15.2 C

1002.2 hpa

63 %

22.5 km/h aus 105

33.8 km/h aus SSW

8.2 C

11.7 C

12.3 C

14.6 C

0 W/m

0.00 mm

11:50

15.4 C

1002.2 hpa

63 %

19.3 km/h aus 108

32.2 km/h aus S

8.4 C

12.4 C

13.0 C

14.8 C

0 W/m

0.00 mm

11:55

15.3 C

1002.2 hpa

65 %

19.3 km/h aus 107

35.4 km/h aus SSW

8.7 C

12.3 C

12.9 C

14.7 C

0 W/m

0.00 mm

12:00

15.3 C

1001.9 hpa

64 %

19.3 km/h aus 103

29.0 km/h aus SW

8.6 C

12.4 C

12.9 C

14.8 C

0 W/m

0.00 mm

12:05

15.3 C

1001.9 hpa

63 %

20.9 km/h aus 106

35.4 km/h aus SW

8.3 C

12.1 C

12.7 C

14.7 C

0 W/m

0.00 mm

12:10

15.2 C

1001.9 hpa

65 %

20.9 km/h aus 106

33.8 km/h aus SSW

8.7 C

12.0 C

12.6 C

14.7 C

0 W/m

0.00 mm

12:15

15.1 C

1002.1 hpa

65 %

19.3 km/h aus 109

32.2 km/h aus SSW

8.5 C

12.1 C

12.6 C

14.5 C

0 W/m

0.00 mm

12:20

15.0 C

1002.1 hpa

65 %

14.5 km/h aus 110

29.0 km/h aus SW

8.5 C

13.1 C

13.6 C

14.4 C

0 W/m

0.00 mm

12:25

14.8 C

1002.1 hpa

66 %

17.7 km/h aus 107

32.2 km/h aus WSW

8.5 C

12.1 C

12.6 C

14.3 C

0 W/m

0.00 mm

12:30

14.4 C

1002.3 hpa

68 %

16.1 km/h aus 112

27.4 km/h aus SW

8.6 C

12.1 C

12.6 C

13.9 C

0 W/m

0.00 mm

12:35

14.3 C

1002.3 hpa

70 %

17.7 km/h aus 113

25.7 km/h aus SW

8.9 C

11.6 C

12.1 C

13.8 C

0 W/m

0.00 mm

12:40

14.7 C

1002.3 hpa

69 %

9.7 km/h aus 108

25.7 km/h aus WSW

9.0 C

13.8 C

14.3 C

14.2 C

0 W/m

0.00 mm

12:45

14.8 C

1002.1 hpa

69 %

14.5 km/h aus 112

27.4 km/h aus SW

9.2 C

12.9 C

13.4 C

14.4 C

0 W/m

0.00 mm

12:50

14.9 C

1002.1 hpa

68 %

16.1 km/h aus 108

32.2 km/h aus SW

9.1 C

12.7 C

13.2 C

14.5 C

0 W/m

0.00 mm

12:55

15.0 C

1002.1 hpa

68 %

16.1 km/h aus 105

27.4 km/h aus WSW

9.1 C

12.8 C

13.2 C

14.6 C

0 W/m

0.00 mm

13:00

15.3 C

1002.3 hpa

67 %

14.5 km/h aus 106

29.0 km/h aus SW

9.2 C

13.6 C

14.0 C

14.9 C

0 W/m

0.00 mm

13:05

15.1 C

1002.3 hpa

68 %

17.7 km/h aus 109

27.4 km/h aus SSW

9.2 C

12.5 C

12.9 C

14.6 C

0 W/m

0.00 mm

13:10

15.1 C

1002.3 hpa

68 %

12.9 km/h aus 105

24.1 km/h aus WSW

9.2 C

13.7 C

14.1 C

14.6 C

0 W/m

0.00 mm

13:15

15.1 C

1002.3 hpa

68 %

14.5 km/h aus 110

24.1 km/h aus SW

9.2 C

13.3 C

13.7 C

14.7 C

0 W/m

0.00 mm

13:20

15.2 C

1002.3 hpa

67 %

12.9 km/h aus 107

22.5 km/h aus SW

9.1 C

13.9 C

14.3 C

14.8 C

0 W/m

0.00 mm

13:25

15.0 C

1002.3 hpa

69 %

14.5 km/h aus 106

22.5 km/h aus SW

9.4 C

13.2 C

13.6 C

14.6 C

0 W/m

0.00 mm

13:30

15.4 C

1002.3 hpa

69 %

11.3 km/h aus 107

22.5 km/h aus SSW

9.7 C

14.5 C

14.9 C

15.0 C

0 W/m

0.00 mm

13:35

15.6 C

1002.3 hpa

66 %

11.3 km/h aus 107

19.3 km/h aus SSW

9.3 C

14.7 C

15.2 C

15.2 C

0 W/m

0.00 mm

13:40

15.6 C

1002.3 hpa

66 %

14.5 km/h aus 108

24.1 km/h aus SW

9.3 C

13.9 C

14.3 C

15.2 C

0 W/m

0.00 mm

13:45

15.8 C

1002.3 hpa

66 %

11.3 km/h aus 111

19.3 km/h aus SSW

9.4 C

14.9 C

15.4 C

15.3 C

0 W/m

0.00 mm

13:50

16.2 C

1002.3 hpa

65 %

11.3 km/h aus 110

24.1 km/h aus SSW

9.6 C

15.5 C

15.9 C

15.8 C

0 W/m

0.00 mm

13:55

16.7 C

1002.3 hpa

63 %

14.5 km/h aus 115

29.0 km/h aus SW

9.6 C

15.1 C

15.6 C

16.2 C

0 W/m

0.00 mm

14:00

16.9 C

1002.2 hpa

60 %

16.1 km/h aus 114

27.4 km/h aus WSW

9.1 C

14.9 C

15.5 C

16.3 C

0 W/m

0.00 mm

14:05

17.2 C

1002.2 hpa

57 %

20.9 km/h aus 113

37.0 km/h aus WSW

8.6 C

14.1 C

14.8 C

16.5 C

0 W/m

0.00 mm

14:10

16.9 C

1002.2 hpa

57 %

20.9 km/h aus 110

32.2 km/h aus WSW

8.3 C

13.7 C

14.4 C

16.2 C

0 W/m

0.00 mm

14:15

17.2 C

1002.3 hpa

57 %

17.7 km/h aus 107

33.8 km/h aus SSW

8.6 C

14.7 C

15.4 C

16.5 C

0 W/m

0.00 mm

14:20

17.3 C

1002.3 hpa

57 %

14.5 km/h aus 113

27.4 km/h aus S

8.7 C

15.6 C

16.3 C

16.6 C

0 W/m

0.00 mm

14:25

17.3 C

1002.3 hpa

55 %

14.5 km/h aus 111

25.7 km/h aus SW

8.1 C

15.5 C

16.3 C

16.5 C

0 W/m

0.00 mm

14:30

17.6 C

1002.1 hpa

56 %

17.7 km/h aus 61

27.4 km/h aus SSW

8.7 C

15.2 C

15.9 C

16.9 C

0 W/m

0.00 mm

14:35

17.4 C

1002.1 hpa

55 %

16.1 km/h aus 111

30.6 km/h aus W

8.3 C

15.3 C

16.1 C

16.7 C

0 W/m

0.00 mm

14:40

17.9 C

1002.1 hpa

58 %

19.3 km/h aus 113

32.2 km/h aus S

9.6 C

15.4 C

15.9 C

17.4 C

0 W/m

0.00 mm

14:45

17.6 C

1002.1 hpa

57 %

17.7 km/h aus 112

27.4 km/h aus SSW

8.9 C

15.2 C

15.8 C

16.9 C

0 W/m

0.00 mm

14:50

17.4 C

1002.1 hpa

54 %

14.5 km/h aus 112

27.4 km/h aus SSW

8.0 C

15.6 C

16.4 C

16.6 C

0 W/m

0.00 mm

14:55

17.3 C

1002.1 hpa

53 %

14.5 km/h aus 116

24.1 km/h aus SW

7.7 C

15.4 C

16.3 C

16.4 C

0 W/m

0.00 mm

15:00

17.2 C

1001.8 hpa

55 %

12.9 km/h aus 114

24.1 km/h aus WSW

8.0 C

15.9 C

16.7 C

16.4 C

0 W/m

0.00 mm

15:05

17.4 C

1001.8 hpa

59 %

16.1 km/h aus 115

24.1 km/h aus WSW

9.3 C

15.4 C

16.1 C

16.8 C

0 W/m

0.00 mm

15:10

17.4 C

1001.8 hpa

54 %

14.5 km/h aus 110

24.1 km/h aus WSW

8.0 C

15.7 C

16.5 C

16.6 C

0 W/m

0.00 mm

15:15

17.4 C

1001.7 hpa

55 %

14.5 km/h aus 110

25.7 km/h aus SW

8.3 C

15.7 C

16.5 C

16.7 C

0 W/m

0.00 mm

15:20

17.7 C

1001.7 hpa

55 %

9.7 km/h aus 113

19.3 km/h aus W

8.6 C

17.0 C

17.7 C

17.0 C

0 W/m

0.00 mm

15:25

17.7 C

1001.7 hpa

54 %

9.7 km/h aus 113

19.3 km/h aus W

8.3 C

16.9 C

17.7 C

16.9 C

0 W/m

0.00 mm

15:30

18.3 C

1001.7 hpa

52 %

14.5 km/h aus 110

24.1 km/h aus SW

8.2 C

16.7 C

17.5 C

17.4 C

0 W/m

0.00 mm

15:35

17.9 C

1001.7 hpa

53 %

12.9 km/h aus 108

20.9 km/h aus SW

8.2 C

16.7 C

17.6 C

17.1 C

0 W/m

0.00 mm

15:40

18.1 C

1001.7 hpa

56 %

9.7 km/h aus 110

22.5 km/h aus SSW

9.1 C

17.4 C

18.1 C

17.4 C

0 W/m

0.00 mm

15:45

17.9 C

1001.8 hpa

53 %

12.9 km/h aus 109

29.0 km/h aus SW

8.2 C

16.6 C

17.4 C

17.1 C

0 W/m

0.00 mm

15:50

17.6 C

1001.8 hpa

54 %

9.7 km/h aus 107

17.7 km/h aus W

8.2 C

16.8 C

17.6 C

16.8 C

0 W/m

0.00 mm

15:55

17.5 C

1001.8 hpa

53 %

12.9 km/h aus 113

22.5 km/h aus SW

7.8 C

16.2 C

17.1 C

16.6 C

0 W/m

0.00 mm

16:00

17.3 C

1001.6 hpa

55 %

9.7 km/h aus 110

16.1 km/h aus SW

8.1 C

16.5 C

17.3 C

16.5 C

0 W/m

0.00 mm

16:05

17.3 C

1001.6 hpa

55 %

12.9 km/h aus 109

20.9 km/h aus SW

8.2 C

16.1 C

16.8 C

16.6 C

0 W/m

0.00 mm

16:10

17.4 C

1001.6 hpa

55 %

12.9 km/h aus 111

24.1 km/h aus W

8.3 C

16.2 C

16.9 C

16.7 C

0 W/m

0.00 mm

16:15

17.3 C

1001.4 hpa

54 %

11.3 km/h aus 109

19.3 km/h aus SW

7.9 C

16.4 C

17.2 C

16.4 C

0 W/m

0.00 mm

16:20

17.4 C

1001.4 hpa

58 %

11.3 km/h aus 110

19.3 km/h aus SSW

9.0 C

16.7 C

17.3 C

16.7 C

0 W/m

0.00 mm

16:25

17.8 C

1001.4 hpa

56 %

8.0 km/h aus 110

20.9 km/h aus SSW

8.9 C

17.2 C

17.8 C

17.2 C

0 W/m

0.00 mm

16:30

18.2 C

1001.5 hpa

52 %

14.5 km/h aus 113

27.4 km/h aus SW

8.2 C

16.6 C

17.4 C

17.4 C

0 W/m

0.00 mm

16:35

18.1 C

1001.5 hpa

51 %

19.3 km/h aus 113

29.0 km/h aus SW

7.8 C

15.2 C

16.1 C

17.2 C

0 W/m

0.00 mm

16:40

17.8 C

1001.5 hpa

56 %

12.9 km/h aus 114

20.9 km/h aus SW

8.9 C

16.7 C

17.3 C

17.1 C

0 W/m

0.00 mm

16:45

17.5 C

1001.6 hpa

56 %

12.9 km/h aus 111

24.1 km/h aus S

8.6 C

16.3 C

17.1 C

16.8 C

0 W/m

0.00 mm

16:50

17.3 C

1001.6 hpa

55 %

12.9 km/h aus 111

27.4 km/h aus SSW

8.1 C

16.0 C

16.8 C

16.5 C

0 W/m

0.00 mm

16:55

17.1 C

1001.6 hpa

53 %

17.7 km/h aus 115

25.7 km/h aus SW

7.4 C

14.4 C

15.3 C

16.2 C

0 W/m

0.00 mm

17:00

16.9 C

1001.8 hpa

53 %

16.1 km/h aus 112

24.1 km/h aus SSW

7.2 C

14.6 C

15.4 C

16.0 C

0 W/m

0.00 mm

17:05

16.9 C

1001.8 hpa

54 %

11.3 km/h aus 108

24.1 km/h aus SW

7.6 C

16.0 C

16.8 C

16.1 C

0 W/m

0.00 mm

17:10

17.3 C

1001.8 hpa

52 %

12.9 km/h aus 106

20.9 km/h aus SW

7.3 C

15.8 C

16.8 C

16.3 C

0 W/m

0.00 mm

17:15

17.8 C

1001.8 hpa

51 %

14.5 km/h aus 113

22.5 km/h aus SW

7.5 C

15.9 C

16.9 C

16.8 C

0 W/m

0.00 mm

17:20

17.9 C

1001.8 hpa

52 %

14.5 km/h aus 111

24.1 km/h aus SSW

7.9 C

16.2 C

17.1 C

17.1 C

0 W/m

0.00 mm

17:25

17.8 C

1001.8 hpa

51 %

16.1 km/h aus 111

24.1 km/h aus SW

7.6 C

15.6 C

16.5 C

16.9 C

0 W/m

0.00 mm

17:30

18.1 C

1001.8 hpa

54 %

12.9 km/h aus 116

20.9 km/h aus SSW

8.6 C

16.9 C

17.7 C

17.3 C

0 W/m

0.00 mm

17:35

18.2 C

1001.8 hpa

51 %

9.7 km/h aus 111

19.3 km/h aus SSW

7.9 C

17.3 C

18.2 C

17.3 C

0 W/m

0.00 mm

17:40

18.2 C

1001.8 hpa

54 %

9.7 km/h aus 112

16.1 km/h aus SSW

8.7 C

17.4 C

18.2 C

17.4 C

0 W/m

0.00 mm

17:45

17.9 C

1001.7 hpa

54 %

16.1 km/h aus 116

24.1 km/h aus SSW

8.5 C

15.9 C

16.7 C

17.2 C

0 W/m

0.00 mm

17:50

17.6 C

1001.7 hpa

54 %

14.5 km/h aus 111

20.9 km/h aus S

8.2 C

15.9 C

16.7 C

16.8 C

0 W/m

0.00 mm

17:55

17.4 C

1001.7 hpa

55 %

12.9 km/h aus 114

20.9 km/h aus S

8.3 C

16.1 C

16.9 C

16.6 C

0 W/m

0.00 mm

18:00

17.2 C

1001.7 hpa

54 %

12.9 km/h aus 108

19.3 km/h aus S

7.8 C

15.9 C

16.7 C

16.4 C

0 W/m

0.00 mm

18:05

16.9 C

1001.7 hpa

56 %

9.7 km/h aus 113

19.3 km/h aus S

8.1 C

16.1 C

16.9 C

16.1 C

0 W/m

0.00 mm

18:10

16.7 C

1001.7 hpa

55 %

12.9 km/h aus 115

22.5 km/h aus S

7.6 C

15.2 C

16.1 C

15.8 C

0 W/m

0.00 mm

18:15

16.6 C

1001.4 hpa

57 %

11.3 km/h aus 108

16.1 km/h aus S

8.1 C

15.7 C

16.4 C

15.8 C

0 W/m

0.00 mm

18:20

16.7 C

1001.4 hpa

57 %

9.7 km/h aus 109

14.5 km/h aus S

8.1 C

15.9 C

16.7 C

15.9 C

0 W/m

0.00 mm

18:25

16.7 C

1001.4 hpa

57 %

8.0 km/h aus 108

12.9 km/h aus S

8.1 C

15.9 C

16.7 C

15.9 C

0 W/m

0.00 mm

18:30

16.7 C

1001.6 hpa

59 %

6.4 km/h aus 111

11.3 km/h aus S

8.6 C

15.9 C

16.7 C

15.9 C

0 W/m

0.00 mm

18:35

16.6 C

1001.6 hpa

59 %

6.4 km/h aus 115

9.7 km/h aus S

8.6 C

15.9 C

16.6 C

15.9 C

0 W/m

0.00 mm

18:40

16.3 C

1001.6 hpa

59 %

4.8 km/h aus 112

11.3 km/h aus SSE

8.3 C

15.6 C

16.3 C

15.6 C

0 W/m

0.00 mm

18:45

16.0 C

1001.4 hpa

62 %

4.8 km/h aus 112

8.0 km/h aus SSE

8.7 C

15.4 C

16.0 C

15.4 C

0 W/m

0.00 mm

18:50

15.8 C

1001.4 hpa

62 %

3.2 km/h aus 107

9.7 km/h aus SSE

8.5 C

15.2 C

15.8 C

15.2 C

0 W/m

0.00 mm

18:55

15.7 C

1001.4 hpa

64 %

3.2 km/h aus 114

4.8 km/h aus SSE

8.9 C

15.2 C

15.7 C

15.2 C

0 W/m

0.00 mm

19:00

15.6 C

1001.3 hpa

66 %

3.2 km/h aus 114

4.8 km/h aus SSE

9.3 C

15.2 C

15.6 C

15.2 C

0 W/m

0.00 mm

19:05

15.7 C

1001.3 hpa

67 %

1.6 km/h aus 102

4.8 km/h aus SSE

9.6 C

15.3 C

15.7 C

15.3 C

0 W/m

0.00 mm

19:10

15.8 C

1001.3 hpa

65 %

3.2 km/h aus 106

8.0 km/h aus SSE

9.3 C

15.3 C

15.8 C

15.3 C

0 W/m

0.00 mm

19:15

15.8 C

1001.4 hpa

67 %

3.2 km/h aus 106

8.0 km/h aus SSE

9.7 C

15.4 C

15.8 C

15.4 C

0 W/m

0.00 mm

19:20

15.8 C

1001.4 hpa

66 %

1.6 km/h aus 107

4.8 km/h aus SSE

9.4 C

15.3 C

15.8 C

15.3 C

0 W/m

0.00 mm

19:25

15.6 C

1001.4 hpa

66 %

1.6 km/h aus 105

3.2 km/h aus SSE

9.3 C

15.2 C

15.6 C

15.2 C

0 W/m

0.00 mm

19:30

15.5 C

1001.4 hpa

67 %

3.2 km/h aus 104

6.4 km/h aus SSE

9.4 C

15.1 C

15.5 C

15.1 C

0 W/m

0.00 mm

19:35

15.3 C

1001.4 hpa

67 %

1.6 km/h aus 107

3.2 km/h aus SSE

9.2 C

14.8 C

15.3 C

14.8 C

0 W/m

0.00 mm

19:40

15.3 C

1001.4 hpa

66 %

1.6 km/h aus 105

3.2 km/h aus SSE

9.0 C

14.8 C

15.3 C

14.8 C

0 W/m

0.00 mm

19:45

15.2 C

1001.4 hpa

66 %

1.6 km/h aus 100

4.8 km/h aus SSE

8.9 C

14.7 C

15.2 C

14.7 C

0 W/m

0.00 mm

19:50

15.0 C

1001.4 hpa

68 %

1.6 km/h aus 110

3.2 km/h aus SSE

9.1 C

14.6 C

15.0 C

14.6 C

0 W/m

0.00 mm

19:55

14.9 C

1001.4 hpa

68 %

1.6 km/h aus 107

3.2 km/h aus SSE

9.0 C

14.4 C

14.9 C

14.4 C

0 W/m

0.00 mm

20:00

14.8 C

1001.3 hpa

69 %

1.6 km/h aus 110

3.2 km/h aus SSE

9.1 C

14.3 C

14.8 C

14.3 C

0 W/m

0.00 mm

20:05

14.8 C

1001.3 hpa

68 %

1.6 km/h aus 101

4.8 km/h aus SSE

8.9 C

14.3 C

14.8 C

14.3 C

0 W/m

0.00 mm

20:10

14.6 C

1001.3 hpa

69 %

1.6 km/h aus 108

3.2 km/h aus SSE

9.0 C

14.2 C

14.6 C

14.2 C

0 W/m

0.00 mm

20:15

14.4 C

1001.4 hpa

70 %

1.6 km/h aus 104

3.2 km/h aus SSE

9.0 C

13.9 C

14.4 C

13.9 C

0 W/m

0.00 mm

20:20

14.2 C

1001.4 hpa

70 %

1.6 km/h aus 103

4.8 km/h aus SSE

8.8 C

13.8 C

14.2 C

13.8 C

0 W/m

0.00 mm

20:25

14.1 C

1001.4 hpa

70 %

1.6 km/h aus 100

4.8 km/h aus SSE

8.7 C

13.6 C

14.1 C

13.6 C

0 W/m

0.00 mm

20:30

13.8 C

1001.5 hpa

72 %

3.2 km/h aus 105

4.8 km/h aus SSE

8.8 C

13.4 C

13.8 C

13.4 C

0 W/m

0.00 mm

20:35

13.6 C

1001.5 hpa

72 %

1.6 km/h aus 101

4.8 km/h aus SSE

8.6 C

13.2 C

13.6 C

13.2 C

0 W/m

0.00 mm

20:40

13.6 C

1001.5 hpa

72 %

1.6 km/h aus 105

4.8 km/h aus SSE

8.6 C

13.2 C

13.6 C

13.2 C

0 W/m

0.00 mm

20:45

13.6 C

1001.3 hpa

72 %

1.6 km/h aus 102

4.8 km/h aus SSE

8.6 C

13.2 C

13.6 C

13.2 C

0 W/m

0.00 mm

20:50

13.3 C

1001.3 hpa

74 %

1.6 km/h aus 102

3.2 km/h aus SSE

8.8 C

13.0 C

13.3 C

13.0 C

0 W/m

0.00 mm

20:55

12.9 C

1001.3 hpa

76 %

1.6 km/h aus 106

3.2 km/h aus SSE

8.8 C

12.6 C

12.9 C

12.6 C

0 W/m

0.00 mm

21:00

12.7 C

1001.4 hpa

77 %

1.6 km/h aus 106

4.8 km/h aus SSE

8.7 C

12.4 C

12.7 C

12.4 C

0 W/m

0.00 mm

21:05

12.4 C

1001.4 hpa

78 %

1.6 km/h aus 102

3.2 km/h aus SSE

8.7 C

12.2 C

12.4 C

12.2 C

0 W/m

0.00 mm

21:10

12.2 C

1001.4 hpa

79 %

3.2 km/h aus 102

4.8 km/h aus SSE

8.6 C

12.0 C

12.2 C

12.0 C

0 W/m

0.00 mm

21:15

12.0 C

1001.4 hpa

79 %

3.2 km/h aus 109

6.4 km/h aus SSE

8.5 C

11.8 C

12.0 C

11.8 C

0 W/m

0.00 mm

21:20

11.8 C

1001.4 hpa

79 %

3.2 km/h aus 105

4.8 km/h aus SSE

8.3 C

11.7 C

11.8 C

11.7 C

0 W/m

0.00 mm

21:25

11.7 C

1001.4 hpa

80 %

3.2 km/h aus 106

4.8 km/h aus SSE

8.3 C

11.5 C

11.7 C

11.5 C

0 W/m

0.00 mm

21:30

11.6 C

1001.3 hpa

81 %

3.2 km/h aus 106

4.8 km/h aus SSE

8.5 C

11.5 C

11.6 C

11.5 C

0 W/m

0.00 mm

21:35

11.7 C

1001.3 hpa

81 %

3.2 km/h aus 103

4.8 km/h aus SSE

8.5 C

11.5 C

11.7 C

11.5 C

0 W/m

0.00 mm

21:40

11.8 C

1001.3 hpa

81 %

3.2 km/h aus 103

4.8 km/h aus SSE

8.7 C

11.7 C

11.8 C

11.7 C

0 W/m

0.00 mm

21:45

11.8 C

1001.5 hpa

81 %

3.2 km/h aus 105

4.8 km/h aus SSE

8.7 C

11.7 C

11.8 C

11.7 C

0 W/m

0.00 mm

21:50

12.0 C

1001.5 hpa

81 %

1.6 km/h aus 101

3.2 km/h aus SSE

8.8 C

11.8 C

12.0 C

11.8 C

0 W/m

0.00 mm

21:55

12.1 C

1001.5 hpa

81 %

1.6 km/h aus 102

4.8 km/h aus SSE

8.9 C

11.9 C

12.1 C

11.9 C

0 W/m

0.00 mm

22:00

12.1 C

1001.4 hpa

80 %

1.6 km/h aus 108

3.2 km/h aus SSE

8.7 C

11.9 C

12.1 C

11.9 C

0 W/m

0.00 mm

22:05

12.1 C

1001.4 hpa

80 %

1.6 km/h aus 103

3.2 km/h aus SSE

8.7 C

11.9 C

12.1 C

11.9 C

0 W/m

0.00 mm

22:10

12.1 C

1001.4 hpa

80 %

0.0 km/h aus 108

1.6 km/h aus SSE

8.7 C

11.9 C

12.1 C

11.9 C

0 W/m

0.00 mm

22:15

12.1 C

1001.3 hpa

80 %

0.0 km/h aus 107

1.6 km/h aus SSE

8.8 C

11.9 C

12.1 C

11.9 C

0 W/m

0.00 mm

22:20

12.2 C

1001.3 hpa

80 %

0.0 km/h aus 106

1.6 km/h aus SSE

8.8 C

12.0 C

12.2 C

12.0 C

0 W/m

0.00 mm

22:25

12.2 C

1001.3 hpa

80 %

0.0 km/h aus 104

0.0 km/h aus ---

8.9 C

12.1 C

12.2 C

12.1 C

0 W/m

0.00 mm

22:30

12.3 C

1001.3 hpa

80 %

0.0 km/h aus 101

0.0 km/h aus ---

9.0 C

12.2 C

12.3 C

12.2 C

0 W/m

0.00 mm

22:35

12.3 C

1001.3 hpa

80 %

0.0 km/h aus 102

0.0 km/h aus ---

9.0 C

12.2 C

12.3 C

12.2 C

0 W/m

0.00 mm

22:40

12.4 C

1001.3 hpa

79 %

0.0 km/h aus 101

1.6 km/h aus SSE

8.9 C

12.3 C

12.4 C

12.3 C

0 W/m

0.00 mm

22:45

12.4 C

1001.3 hpa

80 %

0.0 km/h aus 102

0.0 km/h aus ---

9.1 C

12.3 C

12.4 C

12.3 C

0 W/m

0.00 mm

22:50

12.6 C

1001.3 hpa

80 %

0.0 km/h aus 104

0.0 km/h aus ---

9.2 C

12.4 C

12.6 C

12.4 C

0 W/m

0.00 mm

22:55

12.6 C

1001.3 hpa

80 %

0.0 km/h aus 105

0.0 km/h aus ---

9.2 C

12.4 C

12.6 C

12.4 C

0 W/m

0.00 mm

23:00

12.6 C

1001.3 hpa

81 %

0.0 km/h aus 108

0.0 km/h aus ---

9.4 C

12.4 C

12.6 C

12.4 C

0 W/m

0.00 mm

23:05

12.6 C

1001.3 hpa

80 %

0.0 km/h aus 108

1.6 km/h aus SSE

9.2 C

12.4 C

12.6 C

12.4 C

0 W/m

0.00 mm

23:10

12.5 C

1001.3 hpa

80 %

0.0 km/h aus 103

3.2 km/h aus SSE

9.1 C

12.3 C

12.5 C

12.3 C

0 W/m

0.00 mm

23:15

12.3 C

1001.2 hpa

81 %

1.6 km/h aus 102

4.8 km/h aus SSE

9.2 C

12.2 C

12.3 C

12.2 C

0 W/m

0.00 mm

23:20

12.2 C

1001.2 hpa

82 %

3.2 km/h aus 101

4.8 km/h aus SSE

9.2 C

12.1 C

12.2 C

12.1 C

0 W/m

0.00 mm

23:25

12.3 C

1001.2 hpa

80 %

3.2 km/h aus 108

8.0 km/h aus SSE

8.9 C

12.1 C

12.3 C

12.1 C

0 W/m

0.00 mm

23:30

12.3 C

1001.2 hpa

80 %

3.2 km/h aus 102

6.4 km/h aus SSE

9.0 C

12.2 C

12.3 C

12.2 C

0 W/m

0.00 mm

23:35

12.4 C

1001.2 hpa

80 %

3.2 km/h aus 105

8.0 km/h aus SSE

9.0 C

12.2 C

12.4 C

12.2 C

0 W/m

0.00 mm

23:40

12.3 C

1001.2 hpa

81 %

1.6 km/h aus 102

4.8 km/h aus SSE

9.1 C

12.1 C

12.3 C

12.1 C

0 W/m

0.00 mm

23:45

12.2 C

1001.3 hpa

82 %

3.2 km/h aus 104

4.8 km/h aus SSE

9.2 C

12.1 C

12.2 C

12.1 C

0 W/m

0.00 mm

23:50

12.1 C

1001.3 hpa

83 %

3.2 km/h aus 100

4.8 km/h aus SSE

9.3 C

11.9 C

12.1 C

11.9 C

0 W/m

0.00 mm

23:55

11.9 C

1001.3 hpa

85 %

3.2 km/h aus 102

4.8 km/h aus SSE

9.5 C

11.9 C

11.9 C

11.9 C

0 W/m

0.00 mm